Hourly Weather Kozlovcy

Today, 20 October, Tuesday

Time Temperature Precipitation Wind Pressure Humidity
00:00 +1°C° 0 mm 5 mps 749 mmHg 80%
01:00 +1°C° 0 mm 6 mps 750 mmHg 81%
02:00 +1°C° 0 mm 6 mps 750 mmHg 83%
03:00 +1°C° 0 mm 6 mps 750 mmHg 84%
04:00 +1°C° 0 mm 6 mps 750 mmHg 84%
05:00 +1°C° 0 mm 6 mps 750 mmHg 84%
06:00 +1°C° 0 mm 6 mps 751 mmHg 84%
07:00 +1°C° 0 mm 6 mps 751 mmHg 84%
08:00 +1°C° 0 mm 6 mps 752 mmHg 85%
09:00 +2°C° 0 mm 6 mps 752 mmHg 79%
10:00 +3°C° 0 mm 6 mps 753 mmHg 74%
11:00 +3°C° 0 mm 6 mps 753 mmHg 69%
12:00 +5°C° 0 mm 5 mps 754 mmHg 68%
13:00 +5°C° 0 mm 5 mps 754 mmHg 66%
14:00 +5°C° 0 mm 5 mps 755 mmHg 65%
15:00 +5°C° 0 mm 4 mps 755 mmHg 70%
16:00 +4°C° 0 mm 3 mps 755 mmHg 75%
17:00 +4°C° 0 mm 2 mps 755 mmHg 81%
18:00 +4°C° 0 mm 2 mps 755 mmHg 82%
19:00 +4°C° 0 mm 2 mps 755 mmHg 83%
20:00 +3°C° 0 mm 2 mps 756 mmHg 84%
21:00 +3°C° 0 mm 2 mps 755 mmHg 83%
22:00 +3°C° 0 mm 2 mps 755 mmHg 82%
23:00 +3°C° 0 mm 2 mps 755 mmHg 81%

Tomorrow, 21 October, Wednesday

Time Temperature Precipitation Wind Pressure Humidity
00:00 +4°C° 0 mm 2 mps 755 mmHg 80%
01:00 +4°C° 0 mm 2 mps 755 mmHg 80%
02:00 +3°C° 0 mm 3 mps 754 mmHg 80%
03:00 +3°C° 0 mm 3 mps 754 mmHg 82%
04:00 +3°C° 0 mm 3 mps 753 mmHg 83%
05:00 +3°C° 0 mm 3 mps 752 mmHg 85%
06:00 +4°C° 0.4 mm 3 mps 752 mmHg 87%
07:00 +4°C° 0.4 mm 4 mps 751 mmHg 88%
08:00 +4°C° 0.4 mm 4 mps 751 mmHg 90%
09:00 +4°C° 0.9 mm 3 mps 750 mmHg 91%
10:00 +4°C° 0.9 mm 3 mps 750 mmHg 92%
11:00 +5°C° 0.9 mm 3 mps 750 mmHg 93%
12:00 +5°C° 0.1 mm 3 mps 750 mmHg 93%
13:00 +5°C° 0.1 mm 3 mps 750 mmHg 93%
14:00 +5°C° 0.1 mm 3 mps 749 mmHg 92%
15:00 +6°C° 0 mm 2 mps 749 mmHg 93%
16:00 +6°C° 0 mm 2 mps 749 mmHg 94%
17:00 +7°C° 0 mm 1 mps 749 mmHg 94%
18:00 +7°C° 0 mm 1 mps 750 mmHg 95%
19:00 +7°C° 0 mm 1 mps 750 mmHg 95%
20:00 +6°C° 0 mm 1 mps 750 mmHg 96%
21:00 +5°C° 0 mm 2 mps 750 mmHg 96%
22:00 +5°C° 0 mm 2 mps 750 mmHg 96%
23:00 +5°C° 0 mm 2 mps 750 mmHg 96%

Day after tomorrow, 22 October, Thursday

Time Temperature Precipitation Wind Pressure Humidity
00:00 +5°C° 0 mm 2 mps 749 mmHg 96%
01:00 +5°C° 0 mm 2 mps 749 mmHg 96%
02:00 +5°C° 0 mm 3 mps 749 mmHg 96%
03:00 +5°C° 0.4 mm 3 mps 748 mmHg 96%
04:00 +5°C° 0.4 mm 4 mps 748 mmHg 96%
05:00 +6°C° 0.4 mm 4 mps 747 mmHg 96%
06:00 +6°C° 0.7 mm 5 mps 747 mmHg 95%
07:00 +7°C° 0.7 mm 5 mps 746 mmHg 93%
08:00 +7°C° 0.7 mm 5 mps 746 mmHg 92%
09:00 +8°C° 0.1 mm 5 mps 746 mmHg 90%
10:00 +9°C° 0.1 mm 5 mps 745 mmHg 87%
11:00 +9°C° 0.1 mm 5 mps 745 mmHg 85%
12:00 +10°C° 0 mm 5 mps 745 mmHg 85%
13:00 +11°C° 0 mm 6 mps 746 mmHg 84%
14:00 +11°C° 0 mm 6 mps 746 mmHg 84%
15:00 +11°C° 0 mm 6 mps 746 mmHg 84%
16:00 +11°C° 0 mm 6 mps 746 mmHg 84%
17:00 +11°C° 0 mm 6 mps 746 mmHg 85%
18:00 +11°C° 0 mm 6 mps 746 mmHg 86%
19:00 +12°C° 0 mm 5 mps 747 mmHg 87%
20:00 +12°C° 0 mm 5 mps 747 mmHg 88%
21:00 +12°C° 0 mm 5 mps 747 mmHg 89%
22:00 +10°C° 0 mm 5 mps 747 mmHg 90%
23:00 +10°C° 0 mm 5 mps 747 mmHg 92%

23 October, Friday

Time Temperature Precipitation Wind Pressure Humidity
00:00 +11°C° 0 mm 4 mps 747 mmHg 92%
01:00 +11°C° 0 mm 4 mps 747 mmHg 93%
02:00 +11°C° 0 mm 4 mps 747 mmHg 94%
03:00 +10°C° 0 mm 5 mps 746 mmHg 94%
04:00 +10°C° 0 mm 5 mps 746 mmHg 93%
05:00 +10°C° 0 mm 5 mps 745 mmHg 93%
06:00 +10°C° 0 mm 5 mps 745 mmHg 92%
07:00 +10°C° 0 mm 5 mps 744 mmHg 92%
08:00 +10°C° 0 mm 5 mps 744 mmHg 91%
09:00 +10°C° 1.2 mm 6 mps 744 mmHg 92%
10:00 +10°C° 1.2 mm 6 mps 743 mmHg 92%
11:00 +11°C° 1.2 mm 6 mps 743 mmHg 92%
12:00 +11°C° 0.9 mm 6 mps 743 mmHg 92%
13:00 +11°C° 0.9 mm 6 mps 743 mmHg 92%
14:00 +11°C° 0.9 mm 6 mps 743 mmHg 92%
15:00 +11°C° 0.5 mm 6 mps 742 mmHg 91%
16:00 +11°C° 0.5 mm 6 mps 742 mmHg 90%
17:00 +10°C° 0.5 mm 5 mps 742 mmHg 88%
18:00 +10°C° 0.1 mm 5 mps 743 mmHg 88%
19:00 +9°C° 0.1 mm 5 mps 743 mmHg 87%
20:00 +9°C° 0.1 mm 5 mps 744 mmHg 87%
21:00 +8°C° 0 mm 5 mps 744 mmHg 88%
22:00 +8°C° 0 mm 5 mps 744 mmHg 88%
23:00 +8°C° 0 mm 5 mps 745 mmHg 89%

24 October, Saturday

Time Temperature Precipitation Wind Pressure Humidity
00:00 +7°C° 0 mm 5 mps 745 mmHg 89%
01:00 +7°C° 0 mm 4 mps 745 mmHg 89%
02:00 +7°C° 0 mm 3 mps 745 mmHg 89%
03:00 +7°C° 0 mm 3 mps 746 mmHg 90%
04:00 +7°C° 0 mm 3 mps 746 mmHg 91%
05:00 +7°C° 0 mm 3 mps 746 mmHg 91%
06:00 +7°C° 0 mm 3 mps 746 mmHg 91%
07:00 +7°C° 0 mm 3 mps 746 mmHg 92%
08:00 +7°C° 0 mm 3 mps 746 mmHg 92%
09:00 +8°C° 0 mm 3 mps 746 mmHg 88%
10:00 +7°C° 0 mm 4 mps 746 mmHg 85%
11:00 +8°C° 0 mm 4 mps 747 mmHg 81%
12:00 +10°C° 0 mm 4 mps 746 mmHg 79%
13:00 +10°C° 0 mm 3 mps 746 mmHg 77%
14:00 +10°C° 0 mm 3 mps 746 mmHg 75%
15:00 +10°C° 0 mm 2 mps 746 mmHg 79%
16:00 +9°C° 0 mm 2 mps 745 mmHg 83%
17:00 +8°C° 0 mm 2 mps 745 mmHg 87%
18:00 +8°C° 0 mm 2 mps 745 mmHg 89%
19:00 +8°C° 0 mm 2 mps 745 mmHg 90%
20:00 +8°C° 0 mm 2 mps 745 mmHg 92%
21:00 +8°C° 0 mm 2 mps 745 mmHg 93%
22:00 +8°C° 0 mm 2 mps 745 mmHg 94%
23:00 +7°C° 0 mm 2 mps 745 mmHg 96%

25 October, Sunday

Time Temperature Precipitation Wind Pressure Humidity
00:00 +7°C° 0.1 mm 2 mps 745 mmHg 96%
01:00 +8°C° 0.1 mm 2 mps 745 mmHg 96%
02:00 +8°C° 0.1 mm 2 mps 745 mmHg 96%
03:00 +7°C° 0.1 mm 2 mps 745 mmHg 96%
04:00 +7°C° 0.1 mm 3 mps 745 mmHg 95%
05:00 +7°C° 0.1 mm 3 mps 746 mmHg 95%
06:00 +7°C° 0 mm 3 mps 746 mmHg 95%
07:00 +7°C° 0 mm 3 mps 746 mmHg 94%
08:00 +7°C° 0 mm 3 mps 747 mmHg 94%
09:00 +6°C° 0 mm 4 mps 747 mmHg 91%
10:00 +7°C° 0 mm 4 mps 748 mmHg 88%
11:00 +7°C° 0 mm 4 mps 749 mmHg 85%
12:00 +8°C° 0 mm 4 mps 749 mmHg 82%
13:00 +8°C° 0 mm 4 mps 750 mmHg 79%
14:00 +8°C° 0 mm 4 mps 750 mmHg 76%
15:00 +8°C° 0 mm 3 mps 750 mmHg 80%
16:00 +8°C° 0 mm 3 mps 751 mmHg 84%
17:00 +7°C° 0 mm 2 mps 751 mmHg 87%
18:00 +7°C° 0 mm 2 mps 752 mmHg 89%
19:00 +6°C° 0 mm 2 mps 752 mmHg 91%
20:00 +7°C° 0 mm 1 mps 752 mmHg 93%
21:00 +7°C° 0 mm 1 mps 753 mmHg 94%
22:00 +5°C° 0 mm 2 mps 753 mmHg 95%
23:00 +5°C° 0 mm 2 mps 753 mmHg 96%

26 October, Monday

Time Temperature Precipitation Wind Pressure Humidity
00:00 +5°C° 0 mm 2 mps 753 mmHg 95%
01:00 +5°C° 0 mm 1 mps 754 mmHg 95%
02:00 +5°C° 0 mm 1 mps 754 mmHg 95%
03:00 +5°C° 0 mm 1 mps 754 mmHg 96%
04:00 +5°C° 0 mm 1 mps 754 mmHg 96%
05:00 +5°C° 0 mm 1 mps 754 mmHg 96%
06:00 +5°C° 0 mm 1 mps 754 mmHg 96%
07:00 +5°C° 0 mm 1 mps 755 mmHg 96%
08:00 +5°C° 0 mm 1 mps 755 mmHg 96%
09:00 +6°C° 0 mm 1 mps 755 mmHg 91%
10:00 +8°C° 0 mm 1 mps 755 mmHg 86%
11:00 +9°C° 0 mm 1 mps 755 mmHg 81%
12:00 +10°C° 0 mm 1 mps 755 mmHg 79%
13:00 +10°C° 0 mm 1 mps 755 mmHg 76%
14:00 +11°C° 0 mm 1 mps 755 mmHg 74%
15:00 +10°C° 0 mm 1 mps 755 mmHg 79%
16:00 +9°C° 0 mm 1 mps 755 mmHg 83%
17:00 +8°C° 0 mm 1 mps 755 mmHg 88%
18:00 +7°C° 0 mm 1 mps 755 mmHg 89%
19:00 +7°C° 0 mm 1 mps 755 mmHg 90%
20:00 +5°C° 0 mm 2 mps 755 mmHg 91%
21:00 +5°C° 0 mm 2 mps 755 mmHg 92%
22:00 +5°C° 0 mm 2 mps 755 mmHg 92%
23:00 +5°C° 0 mm 2 mps 755 mmHg 93%
Show more